Location: Pardubice
(50.0618°N, 15.7556°E)
Time: 10:49:15
(UTC+02:00)

ISS - Visible Passes

Search period start: 23 May 2017 00:00
Search period end: 02 June 2017 00:00
Orbit: 402 x 409 km, 51.6° (Epoch: 23 May)

Date Brightness Start Highest point End Pass type
(mag) Time Alt. Az. Time Alt. Az. Time Alt. Az.
23 May -3.5 01:15:13 15° W 01:17:50 67° N 01:21:06 10° ENE visible
23 May -3.8 02:51:11 10° WNW 02:54:29 81° NNE 02:57:46 10° ESE visible
23 May -3.2 22:46:25 10° SW 22:49:25 33° SSE 22:52:26 10° E visible
24 May -3.8 00:22:27 10° W 00:25:46 78° NNW 00:29:03 10° ENE visible
24 May -3.5 01:59:08 10° WNW 02:02:25 69° N 02:05:42 10° E visible
24 May -3.6 03:35:41 10° WNW 03:38:52 47° SSW 03:42:02 10° SE visible
24 May -2.6 21:54:55 10° SSW 21:57:32 22° SE 22:00:09 10° E visible
24 May -4.0 23:30:24 10° WSW 23:33:42 82° SSE 23:37:01 10° ENE visible
25 May -3.4 01:07:02 10° W 01:10:19 64° N 01:13:35 10° E visible
25 May -4.0 02:43:36 10° WNW 02:46:54 69° SSW 02:50:09 10° ESE visible
25 May -3.8 22:38:26 10° SW 22:41:41 59° SSE 22:44:56 10° ENE visible
26 May -3.4 00:14:55 10° W 00:18:12 65° N 00:21:29 10° E visible
26 May -3.9 01:51:32 10° WNW 01:54:51 88° NNE 01:58:08 10° ESE visible
26 May -2.9 03:28:16 10° W 03:31:05 26° SW 03:33:53 10° SSE visible
26 May -3.3 21:46:35 10° SW 21:49:41 39° SSE 21:52:48 10° E visible
26 May -3.6 23:22:48 10° W 23:26:05 73° N 23:29:23 10° ENE visible
27 May -3.6 00:59:27 10° WNW 01:02:45 72° N 01:06:02 10° E visible
27 May -3.5 02:36:02 10° W 02:39:09 40° SSW 02:42:15 10° SE visible
27 May -3.9 22:30:41 10° WSW 22:33:59 90° NNW 22:37:18 10° ENE visible
28 May -3.4 00:07:20 10° W 00:10:37 65° N 00:13:53 10° E visible
28 May -3.9 01:43:53 10° WNW 01:47:09 60° SSW 01:47:20 59° S visible
28 May -3.9 21:38:37 10° WSW 21:41:55 67° SSE 21:45:11 10° ENE visible
28 May -3.4 23:15:11 10° W 23:18:28 64° N 23:21:45 10° E visible
29 May -4.0 00:51:47 10° WNW 00:55:05 84° SSW 00:55:53 48° ESE visible
29 May -3.5 22:23:01 10° W 22:26:19 69° N 22:29:36 10° ENE visible
29 May -3.7 23:59:39 10° WNW 00:02:58 77° NNE 00:04:58 22° E visible
30 May -2.0 01:36:16 10° W 01:37:35 20° W 01:37:35 20° W visible
30 May -3.5 23:07:30 10° WNW 23:10:48 67° N 23:14:05 10° E visible
31 May -3.5 00:44:04 10° WNW 00:46:51 47° WSW 00:46:51 47° WSW visible
31 May -3.3 22:15:20 10° W 22:18:37 63° N 22:21:54 10° E visible
31 May -4.0 23:51:54 10° WNW 23:55:12 75° SSW 23:56:13 41° SE visible
01 Jun -3.8 22:59:44 10° WNW 23:03:03 83° NNE 23:05:37 16° ESE visible
